| time (UTC) | temp F | wind direction | speed knots | gust knots | rain 1hr in | rain 24hr in | rain mn in | humidity % | barometer mb |
| 20260505110935 | 54 | 182 | 3.5 | 7.8 | 0.00 | 0.00 | 0.00 | 88 | 1011.8 |
| 20260505110435 | 53 | 176 | 4.3 | 7.8 | 0.00 | 0.00 | 0.00 | 89 | 1011.7 |
| 20260505101926 | 53 | 151 | 4.3 | 8.7 | 0.00 | 0.00 | 0.00 | 89 | 1011.6 |
| 20260505101425 | 52 | 202 | 4.3 | 7.8 | 0.00 | 0.00 | 0.00 | 89 | 1011.5 |
| 20260505100926 | 52 | 166 | 4.3 | 8.7 | 0.00 | 0.00 | 0.00 | 89 | 1011.5 |
| 20260505100424 | 52 | 153 | 4.3 | 11.3 | 0.00 | 0.00 | 0.00 | 89 | 1011.5 |
| 20260505095924 | 52 | 138 | 4.3 | 11.3 | 0.00 | 0.00 | 0.00 | 89 | 1011.5 |
| 20260505095425 | 52 | 181 | 3.5 | 8.7 | 0.00 | 0.00 | 0.00 | 89 | 1011.5 |
| 20260505094922 | 52 | 138 | 2.6 | 8.7 | 0.00 | 0.00 | 0.00 | 89 | 1011.5 |
| 20260505094422 | 52 | 155 | 3.5 | 8.7 | 0.00 | 0.00 | 0.00 | 89 | 1011.5 |
| 20260505093922 | 52 | 196 | 3.5 | 7.8 | 0.00 | 0.00 | 0.00 | 89 | 1011.5 |
| 20260505093420 | 52 | 160 | 3.5 | 7.8 | 0.00 | 0.00 | 0.00 | 89 | 1011.4 |
| 20260505092920 | 52 | 155 | 2.6 | 7.0 | 0.00 | 0.00 | 0.00 | 89 | 1011.3 |
| 20260505092419 | 52 | 134 | 2.6 | 7.0 | 0.00 | 0.00 | 0.00 | 89 | 1011.3 |
| 20260505091917 | 52 | 164 | 1.7 | 6.1 | 0.00 | 0.00 | 0.00 | 89 | 1011.4 |
| 20260505091418 | 52 | 155 | 2.6 | 6.1 | 0.00 | 0.00 | 0.00 | 90 | 1011.4 |
| 20260505090917 | 51 | 172 | 1.7 | 5.2 | 0.00 | 0.00 | 0.00 | 90 | 1011.4 |
| 20260505090418 | 51 | 175 | 1.7 | 4.3 | 0.00 | 0.00 | 0.00 | 90 | 1011.3 |
| 20260505085918 | 51 | 152 | 1.7 | 4.3 | 0.00 | 0.00 | 0.00 | 90 | 1011.4 |
| 20260505085416 | 51 | 207 | 1.7 | 5.2 | 0.00 | 0.00 | 0.00 | 90 | 1011.4 |
| 20260505084915 | 51 | 149 | 1.7 | 5.2 | 0.00 | 0.00 | 0.00 | 90 | 1011.4 |
| 20260505084412 | 51 | 156 | 1.7 | 6.1 | 0.00 | 0.00 | 0.00 | 90 | 1011.3 |
| 20260505083912 | 51 | 196 | 1.7 | 6.1 | 0.00 | 0.00 | 0.00 | 91 | 1011.3 |
| 20260505083407 | 51 | 171 | 1.7 | 4.3 | 0.00 | 0.00 | 0.00 | 91 | 1011.4 |
| 20260505082904 | 51 | 163 | 1.7 | 4.3 | 0.00 | 0.00 | 0.00 | 91 | 1011.4 |
| 20260505082347 | 51 | 139 | 1.7 | 4.3 | 0.00 | 0.00 | 0.00 | 91 | 1011.5 |
| 20260505081844 | 51 | 177 | 1.7 | 4.3 | 0.00 | 0.00 | 0.00 | 91 | 1011.5 |
| 20260505081344 | 51 | 153 | 1.7 | 4.3 | 0.00 | 0.00 | 0.00 | 91 | 1011.6 |
| 20260505080842 | 51 | 150 | 1.7 | 6.1 | 0.00 | 0.00 | 0.00 | 91 | 1011.6 |
| 20260505080344 | 51 | 173 | 2.6 | 6.1 | 0.00 | 0.00 | 0.00 | 91 | 1011.7 |
| 20260505075834 | 51 | 160 | 2.6 | 6.1 | 0.00 | 0.00 | 0.00 | 91 | 1011.6 |
| 20260505075334 | 51 | 173 | 1.7 | 6.1 | 0.00 | 0.00 | 0.00 | 91 | 1011.7 |
| 20260505074831 | 51 | 225 | 1.7 | 5.2 | 0.00 | 0.00 | 0.00 | 91 | 1011.7 |
| 20260505074335 | 51 | 161 | 1.7 | 5.2 | 0.00 | 0.00 | 0.00 | 90 | 1011.7 |
| 20260505073821 | 52 | 123 | 1.7 | 4.3 | 0.00 | 0.00 | 0.00 | 90 | 1011.6 |
| 20260505073325 | 52 | 161 | 1.7 | 4.3 | 0.00 | 0.00 | 0.00 | 90 | 1011.7 |
| 20260505072819 | 52 | 194 | 1.7 | 5.2 | 0.00 | 0.00 | 0.00 | 90 | 1011.7 |
| 20260505072318 | 52 | 153 | 2.6 | 6.1 | 0.00 | 0.00 | 0.00 | 90 | 1011.6 |
| 20260505071818 | 52 | 154 | 2.6 | 6.1 | 0.00 | 0.00 | 0.00 | 90 | 1011.7 |
| 20260505071317 | 52 | 169 | 2.6 | 5.2 | 0.00 | 0.00 | 0.00 | 90 | 1011.6 |
| 20260505070815 | 52 | 191 | 2.6 | 6.1 | 0.00 | 0.00 | 0.00 | 89 | 1011.6 |
| 20260505070316 | 52 | 130 | 2.6 | 10.4 | 0.00 | 0.00 | 0.00 | 89 | 1011.6 |
| 20260505065815 | 52 | 171 | 2.6 | 10.4 | 0.00 | 0.00 | 0.00 | 90 | 1011.7 |
| 20260505065315 | 52 | 209 | 2.6 | 7.0 | 0.00 | 0.00 | 0.00 | 90 | 1011.6 |
| 20260505064810 | 52 | 168 | 2.6 | 8.7 | 0.00 | 0.00 | 0.00 | 90 | 1011.5 |
| 20260505064311 | 52 | 203 | 1.7 | 8.7 | 0.00 | 0.00 | 0.00 | 90 | 1011.5 |
| 20260505063804 | 52 | 250 | 1.7 | 7.0 | 0.00 | 0.00 | 0.00 | 90 | 1011.4 |
| 20260505063305 | 52 | 201 | 1.7 | 7.0 | 0.00 | 0.00 | 0.00 | 90 | 1011.4 |
| 20260505062804 | 52 | 194 | 1.7 | 7.0 | 0.00 | 0.00 | 0.00 | 90 | 1011.4 |
| 20260505062304 | 52 | 154 | 2.6 | 7.0 | 0.00 | 0.00 | 0.00 | 90 | 1011.5 |
| 20260505061805 | 52 | 197 | 1.7 | 6.1 | 0.00 | 0.00 | 0.00 | 90 | 1011.5 |
| 20260505061304 | 52 | 167 | 1.7 | 7.0 | 0.00 | 0.00 | 0.00 | 89 | 1011.5 |
| 20260505060804 | 52 | 186 | 1.7 | 7.0 | 0.00 | 0.00 | 0.00 | 89 | 1011.4 |
| 20260505060304 | 52 | 239 | 1.7 | 4.3 | 0.00 | 0.00 | 0.00 | 89 | 1011.5 |
| 20260505055803 | 52 | 225 | 1.7 | 5.2 | 0.00 | 0.00 | 0.00 | 89 | 1011.5 |
| 20260505055303 | 52 | 185 | 2.6 | 6.1 | 0.00 | 0.00 | 0.00 | 89 | 1011.5 |
| 20260505054802 | 52 | 169 | 2.6 | 7.0 | 0.00 | 0.00 | 0.00 | 89 | 1011.6 |
| 20260505054257 | 52 | 156 | 2.6 | 7.0 | 0.00 | 0.00 | 0.00 | 88 | 1011.5 |
| 20260505053759 | 52 | 177 | 2.6 | 6.1 | 0.00 | 0.00 | 0.00 | 88 | 1011.6 |
| 20260505053257 | 52 | 191 | 2.6 | 7.0 | 0.00 | 0.00 | 0.00 | 88 | 1011.6 |
| 20260505052756 | 52 | 148 | 2.6 | 7.0 | 0.00 | 0.00 | 0.00 | 88 | 1011.6 |
| 20260505052256 | 52 | 206 | 2.6 | 7.0 | 0.00 | 0.00 | 0.00 | 88 | 1011.6 |
| 20260505051753 | 52 | 137 | 2.6 | 7.0 | 0.00 | 0.00 | 0.00 | 88 | 1011.6 |
| 20260505051253 | 52 | 180 | 2.6 | 7.0 | 0.00 | 0.00 | 0.00 | 87 | 1011.6 |
| 20260505050753 | 52 | 211 | 1.7 | 7.8 | 0.00 | 0.00 | 0.00 | 87 | 1011.5 |
| 20260505050252 | 52 | 171 | 2.6 | 7.8 | 0.00 | 0.00 | 0.00 | 87 | 1011.6 |
| 20260505041750 | 52 | 164 | 3.5 | 7.8 | 0.00 | 0.00 | 0.00 | 86 | 1011.9 |
| 20260505041250 | 52 | 184 | 3.5 | 8.7 | 0.00 | 0.00 | 0.00 | 85 | 1011.9 |
| 20260505040751 | 52 | 165 | 3.5 | 8.7 | 0.00 | 0.00 | 0.00 | 85 | 1012.0 |
| 20260505040250 | 52 | 169 | 3.5 | 7.8 | 0.00 | 0.00 | 0.00 | 85 | 1012.0 |
| 20260505035748 | 52 | 216 | 3.5 | 7.8 | 0.00 | 0.00 | 0.00 | 85 | 1012.0 |
| 20260505035247 | 52 | 162 | 3.5 | 8.7 | 0.00 | 0.00 | 0.00 | 84 | 1012.1 |
| 20260505034749 | 52 | 213 | 3.5 | 9.6 | 0.00 | 0.00 | 0.00 | 84 | 1012.1 |
| 20260505034246 | 52 | 161 | 3.5 | 9.6 | 0.00 | 0.00 | 0.00 | 84 | 1012.1 |
| 20260505033745 | 52 | 153 | 2.6 | 7.0 | 0.00 | 0.00 | 0.00 | 84 | 1012.1 |
| 20260505033245 | 52 | 163 | 2.6 | 6.1 | 0.00 | 0.00 | 0.00 | 84 | 1012.1 |
| 20260505032747 | 53 | 227 | 3.5 | 7.8 | 0.00 | 0.00 | 0.00 | 84 | 1012.0 |
| 20260505032245 | 53 | 182 | 3.5 | 9.6 | 0.00 | 0.00 | 0.00 | 83 | 1011.9 |
| 20260505031742 | 53 | 186 | 3.5 | 9.6 | 0.00 | 0.00 | 0.00 | 83 | 1011.9 |
| 20260505031241 | 53 | 198 | 4.3 | 10.4 | 0.00 | 0.00 | 0.00 | 83 | 1012.0 |
| 20260505030742 | 53 | 255 | 3.5 | 13.0 | 0.00 | 0.00 | 0.00 | 83 | 1012.0 |
| 20260505030240 | 53 | 170 | 3.5 | 13.0 | 0.00 | 0.00 | 0.00 | 83 | 1012.0 |
| 20260505025746 | 53 | 122 | 3.5 | 9.6 | 0.00 | 0.00 | 0.00 | 82 | 1012.0 |
| 20260505025239 | 53 | 174 | 4.3 | 9.6 | 0.00 | 0.00 | 0.00 | 82 | 1011.9 |
| 20260505024741 | 53 | 243 | 3.5 | 12.2 | 0.00 | 0.00 | 0.00 | 82 | 1012.1 |
| 20260505024238 | 53 | 275 | 3.5 | 13.0 | 0.00 | 0.00 | 0.00 | 82 | 1012.1 |
| 20260505023738 | 53 | 202 | 4.3 | 14.8 | 0.00 | 0.00 | 0.00 | 81 | 1012.1 |
| 20260505023236 | 53 | 220 | 3.5 | 14.8 | 0.00 | 0.00 | 0.00 | 81 | 1012.0 |
| 20260505022736 | 53 | 148 | 3.5 | 11.3 | 0.00 | 0.00 | 0.00 | 81 | 1012.1 |
| 20260505022237 | 53 | 151 | 4.3 | 12.2 | 0.00 | 0.00 | 0.00 | 80 | 1012.0 |
| 20260505021735 | 53 | 215 | 4.3 | 12.2 | 0.00 | 0.00 | 0.00 | 80 | 1012.0 |
| 20260505021233 | 53 | 140 | 4.3 | 12.2 | 0.00 | 0.00 | 0.00 | 80 | 1012.0 |
| 20260505020735 | 53 | 204 | 4.3 | 12.2 | 0.00 | 0.00 | 0.00 | 80 | 1012.0 |
| 20260505020235 | 53 | 166 | 4.3 | 12.2 | 0.00 | 0.00 | 0.00 | 80 | 1011.8 |
| 20260505015731 | 53 | 161 | 4.3 | 11.3 | 0.00 | 0.00 | 0.00 | 80 | 1011.8 |
| 20260505015234 | 54 | 204 | 4.3 | 16.5 | 0.00 | 0.00 | 0.00 | 80 | 1011.8 |
| 20260505014731 | 54 | 184 | 4.3 | 16.5 | 0.00 | 0.00 | 0.00 | 80 | 1011.8 |
| 20260505014231 | 54 | 178 | 5.2 | 13.0 | 0.00 | 0.00 | 0.00 | 79 | 1011.7 |
| 20260505013731 | 54 | 155 | 5.2 | 13.9 | 0.00 | 0.00 | 0.00 | 79 | 1011.8 |
| 20260505013229 | 54 | 205 | 4.3 | 13.9 | 0.00 | 0.00 | 0.00 | 79 | 1011.6 |
| 20260505012729 | 54 | 119 | 5.2 | 13.0 | 0.00 | 0.00 | 0.00 | 78 | 1011.5 |
| 20260505012228 | 54 | 159 | 5.2 | 16.5 | 0.00 | 0.00 | 0.00 | 78 | 1011.2 |
| 20260505011727 | 54 | 144 | 5.2 | 16.5 | 0.00 | 0.00 | 0.00 | 77 | 1011.4 |
| 20260505011227 | 54 | 189 | 4.3 | 10.4 | 0.00 | 0.00 | 0.00 | 77 | 1011.1 |
| 20260505010726 | 54 | 242 | 5.2 | 11.3 | 0.00 | 0.00 | 0.00 | 77 | 1011.2 |
| 20260505010225 | 54 | 155 | 5.2 | 11.3 | 0.00 | 0.00 | 0.00 | 77 | 1011.1 |
| 20260505005725 | 54 | 79 | 5.2 | 13.0 | 0.00 | 0.00 | 0.00 | 77 | 1011.1 |
| 20260505005225 | 54 | 137 | 4.3 | 13.0 | 0.00 | 0.00 | 0.00 | 77 | 1011.1 |
| 20260505004723 | 54 | 275 | 4.3 | 11.3 | 0.00 | 0.00 | 0.00 | 77 | 1011.0 |
| 20260505004221 | 54 | 161 | 5.2 | 19.1 | 0.00 | 0.00 | 0.00 | 76 | 1011.0 |
| 20260505003722 | 54 | 213 | 4.3 | 19.1 | 0.00 | 0.00 | 0.00 | 76 | 1011.0 |
| 20260505003224 | 54 | 232 | 4.3 | 14.8 | 0.00 | 0.00 | 0.00 | 75 | 1010.8 |
| 20260505002721 | 54 | 152 | 4.3 | 14.8 | 0.00 | 0.00 | 0.00 | 75 | 1010.6 |
| 20260505002220 | 54 | 207 | 4.3 | 11.3 | 0.00 | 0.00 | 0.00 | 74 | 1010.6 |
| 20260505001722 | 54 | 256 | 5.2 | 11.3 | 0.00 | 0.00 | 0.00 | 74 | 1010.5 |
| 20260505001219 | 54 | 156 | 4.3 | 12.2 | 0.00 | 0.00 | 0.00 | 73 | 1010.5 |
| 20260505000717 | 54 | 132 | 4.3 | 12.2 | 0.00 | 0.00 | 0.00 | 72 | 1010.3 |
| 20260505000218 | 54 | 168 | 4.3 | 12.2 | 0.00 | 0.00 | 0.00 | 71 | 1010.4 |
| 20260504235717 | 54 | 225 | 4.3 | 12.2 | 0.00 | 0.00 | 0.00 | 71 | 1010.3 |
| 20260504235218 | 54 | 210 | 5.2 | 12.2 | 0.00 | 0.00 | 0.00 | 71 | 1010.3 |
| 20260504234715 | 55 | 197 | 5.2 | 16.5 | 0.00 | 0.00 | 0.00 | 70 | 1010.2 |
| 20260504234214 | 55 | 180 | 5.2 | 16.5 | 0.00 | 0.00 | 0.00 | 70 | 1010.3 |
| 20260504233715 | 55 | 204 | 4.3 | 11.3 | 0.00 | 0.00 | 0.00 | 69 | 1010.3 |
| 20260504233216 | 55 | 193 | 4.3 | 11.3 | 0.00 | 0.00 | 0.00 | 69 | 1010.2 |
| 20260504232715 | 55 | 260 | 4.3 | 11.3 | 0.00 | 0.00 | 0.00 | 69 | 1010.2 |
| 20260504232212 | 55 | 145 | 4.3 | 11.3 | 0.00 | 0.00 | 0.00 | 70 | 1010.1 |
| 20260504231712 | 55 | 153 | 3.5 | 11.3 | 0.00 | 0.00 | 0.00 | 70 | 1010.0 |
| 20260504231212 | 55 | 205 | 4.3 | 12.2 | 0.00 | 0.00 | 0.00 | 70 | 1010.0 |
| 20260504230711 | 55 | 213 | 4.3 | 13.0 | 0.00 | 0.00 | 0.00 | 69 | 1009.9 |
| 20260504230207 | 55 | 177 | 4.3 | 14.8 | 0.00 | 0.00 | 0.00 | 69 | 1009.8 |
| 20260504225708 | 56 | 185 | 4.3 | 14.8 | 0.00 | 0.00 | 0.00 | 68 | 1009.9 |
| 20260504225209 | 56 | 173 | 5.2 | 10.4 | 0.00 | 0.00 | 0.00 | 67 | 1009.8 |
| 20260504224710 | 56 | 172 | 5.2 | 10.4 | 0.00 | 0.00 | 0.00 | 66 | 1009.7 |
| 20260504224208 | 56 | 160 | 5.2 | 11.3 | 0.00 | 0.00 | 0.00 | 65 | 1009.7 |
| 20260504223708 | 57 | 192 | 5.2 | 11.3 | 0.00 | 0.00 | 0.00 | 65 | 1009.8 |
| 20260504223205 | 57 | 247 | 5.2 | 11.3 | 0.00 | 0.00 | 0.00 | 65 | 1009.8 |
| 20260504222707 | 57 | 5 | 5.2 | 11.3 | 0.00 | 0.00 | 0.00 | 64 | 1009.8 |
| 20260504222206 | 57 | 171 | 5.2 | 15.6 | 0.00 | 0.00 | 0.00 | 64 | 1009.7 |
| 20260504221703 | 57 | 196 | 6.1 | 15.6 | 0.00 | 0.00 | 0.00 | 63 | 1009.8 |
| 20260504221205 | 57 | 254 | 6.1 | 15.6 | 0.00 | 0.00 | 0.00 | 64 | 1009.7 |
| 20260504220702 | 57 | 74 | 6.1 | 12.2 | 0.00 | 0.00 | 0.00 | 63 | 1009.7 |
| 20260504220202 | 58 | 178 | 6.1 | 14.8 | 0.00 | 0.00 | 0.00 | 63 | 1009.8 |
| 20260504215645 | 58 | 157 | 6.1 | 14.8 | 0.00 | 0.00 | 0.00 | 62 | 1009.8 |
| 20260504215142 | 58 | 202 | 5.2 | 15.6 | 0.00 | 0.00 | 0.00 | 62 | 1010.0 |
| 20260504214643 | 58 | 165 | 5.2 | 15.6 | 0.00 | 0.00 | 0.00 | 62 | 1009.9 |
| 20260504214141 | 58 | 162 | 5.2 | 15.6 | 0.00 | 0.00 | 0.00 | 62 | 1009.9 |
| 20260504213641 | 59 | 157 | 4.3 | 13.9 | 0.00 | 0.00 | 0.00 | 61 | 1009.9 |
| 20260504213140 | 59 | 173 | 5.2 | 13.9 | 0.00 | 0.00 | 0.00 | 61 | 1009.9 |
| 20260504212640 | 59 | 242 | 5.2 | 15.6 | 0.00 | 0.00 | 0.00 | 61 | 1009.9 |
| 20260504212139 | 59 | 161 | 5.2 | 15.6 | 0.00 | 0.00 | 0.00 | 61 | 1010.0 |
| 20260504211638 | 59 | 187 | 5.2 | 15.6 | 0.00 | 0.00 | 0.00 | 62 | 1010.0 |
| 20260504211138 | 59 | 182 | 5.2 | 15.6 | 0.00 | 0.00 | 0.00 | 61 | 1009.9 |
| 20260504210637 | 59 | 147 | 5.2 | 13.9 | 0.00 | 0.00 | 0.00 | 62 | 1009.8 |
| 20260504210138 | 60 | 165 | 6.1 | 13.9 | 0.00 | 0.00 | 0.00 | 61 | 1009.6 |
| 20260504205638 | 60 | 194 | 6.1 | 13.9 | 0.00 | 0.00 | 0.00 | 61 | 1009.6 |
| 20260504205136 | 60 | 169 | 6.1 | 13.0 | 0.00 | 0.00 | 0.00 | 60 | 1009.5 |
| 20260504204635 | 60 | 161 | 5.2 | 13.0 | 0.00 | 0.00 | 0.00 | 57 | 1009.5 |
| 20260504204134 | 61 | 177 | 5.2 | 10.4 | 0.00 | 0.00 | 0.00 | 54 | 1009.3 |
| 20260504203634 | 62 | 182 | 5.2 | 13.0 | 0.00 | 0.00 | 0.00 | 54 | 1009.4 |
| 20260504203134 | 61 | 170 | 5.2 | 13.0 | 0.00 | 0.00 | 0.00 | 54 | 1009.4 |
| 20260504202632 | 61 | 244 | 5.2 | 14.8 | 0.00 | 0.00 | 0.00 | 55 | 1009.2 |
| 20260504202132 | 61 | 94 | 5.2 | 14.8 | 0.00 | 0.00 | 0.00 | 56 | 1009.4 |
| 20260504201631 | 61 | 172 | 5.2 | 19.1 | 0.00 | 0.00 | 0.00 | 57 | 1009.3 |
| 20260504201131 | 61 | 213 | 6.1 | 19.1 | 0.00 | 0.00 | 0.00 | 56 | 1009.3 |
| 20260504200630 | 62 | 229 | 5.2 | 15.6 | 0.00 | 0.00 | 0.00 | 55 | 1009.3 |
| 20260504200129 | 62 | 184 | 6.1 | 15.6 | 0.00 | 0.00 | 0.00 | 54 | 1009.4 |
| 20260504195628 | 62 | 270 | 7.0 | 14.8 | 0.00 | 0.00 | 0.00 | 51 | 1009.3 |
| 20260504195129 | 62 | 219 | 7.0 | 14.8 | 0.00 | 0.00 | 0.00 | 50 | 1009.4 |
| 20260504194628 | 63 | 188 | 6.1 | 13.9 | 0.00 | 0.00 | 0.00 | 48 | 1009.2 |
| 20260504194126 | 64 | 275 | 4.3 | 12.2 | 0.00 | 0.00 | 0.00 | 50 | 1009.2 |
| 20260504193626 | 64 | 182 | 4.3 | 13.0 | 0.00 | 0.00 | 0.00 | 44 | 1009.3 |
| 20260504193125 | 64 | 298 | 5.2 | 13.0 | 0.00 | 0.00 | 0.00 | 45 | 1009.3 |
| 20260504192625 | 63 | 223 | 7.0 | 17.4 | 0.00 | 0.00 | 0.00 | 45 | 1009.6 |
| 20260504192125 | 63 | 227 | 7.8 | 17.4 | 0.00 | 0.00 | 0.00 | 44 | 1009.6 |
| 20260504191624 | 63 | 197 | 7.0 | 20.9 | 0.00 | 0.00 | 0.00 | 44 | 1009.6 |
| 20260504191122 | 63 | 285 | 7.8 | 20.9 | 0.00 | 0.00 | 0.00 | 44 | 1009.6 |
| 20260504190624 | 63 | 248 | 7.8 | 19.1 | 0.00 | 0.00 | 0.00 | 45 | 1009.7 |
| 20260504190123 | 63 | 138 | 6.1 | 19.1 | 0.00 | 0.00 | 0.00 | 45 | 1009.7 |
| 20260504185622 | 64 | 146 | 5.2 | 15.6 | 0.00 | 0.00 | 0.00 | 48 | 1009.8 |
| 20260504185121 | 64 | 318 | 4.3 | 11.3 | 0.00 | 0.00 | 0.00 | 48 | 1009.7 |
| 20260504184620 | 64 | 239 | 3.5 | 11.3 | 0.00 | 0.00 | 0.00 | 49 | 1009.7 |
| 20260504184120 | 64 | 210 | 5.2 | 18.2 | 0.00 | 0.00 | 0.00 | 51 | 1009.6 |
| 20260504183619 | 63 | 221 | 7.0 | 18.2 | 0.00 | 0.00 | 0.00 | 46 | 1009.5 |
| 20260504183117 | 63 | 262 | 6.1 | 15.6 | 0.00 | 0.00 | 0.00 | 46 | 1009.7 |
| 20260504182618 | 63 | 316 | 6.1 | 18.2 | 0.00 | 0.00 | 0.00 | 45 | 1009.5 |
| 20260504182115 | 63 | 192 | 6.1 | 18.2 | 0.00 | 0.00 | 0.00 | 47 | 1009.3 |
| 20260504181616 | 63 | 223 | 6.1 | 15.6 | 0.00 | 0.00 | 0.00 | 46 | 1009.4 |
| 20260504181115 | 63 | 304 | 6.1 | 14.8 | 0.00 | 0.00 | 0.00 | 48 | 1009.5 |
| 20260504180615 | 63 | 240 | 6.1 | 14.8 | 0.00 | 0.00 | 0.00 | 46 | 1009.3 |
| 20260504180114 | 63 | 235 | 5.2 | 13.9 | 0.00 | 0.00 | 0.00 | 49 | 1009.4 |
| 20260504175614 | 63 | 234 | 6.1 | 14.8 | 0.00 | 0.00 | 0.00 | 47 | 1009.4 |
| 20260504175114 | 63 | 246 | 7.0 | 14.8 | 0.00 | 0.00 | 0.00 | 48 | 1009.6 |
| 20260504174613 | 62 | 202 | 7.0 | 19.1 | 0.00 | 0.00 | 0.00 | 47 | 1009.7 |
| 20260504174110 | 62 | 237 | 7.0 | 19.1 | 0.00 | 0.00 | 0.00 | 45 | 1010.0 |
| 20260504173609 | 63 | 153 | 7.0 | 18.2 | 0.00 | 0.00 | 0.00 | 46 | 1009.7 |
| 20260504173111 | 63 | 173 | 6.1 | 18.2 | 0.00 | 0.00 | 0.00 | 46 | 1009.6 |
| 20260504172609 | 63 | 210 | 6.1 | 19.1 | 0.00 | 0.00 | 0.00 | 50 | 1009.5 |
| 20260504172109 | 64 | 223 | 5.2 | 19.1 | 0.00 | 0.00 | 0.00 | 46 | 1009.7 |
| 20260504171608 | 64 | 212 | 5.2 | 20.0 | 0.00 | 0.00 | 0.00 | 50 | 1009.5 |
| 20260504171106 | 64 | 240 | 5.2 | 21.7 | 0.00 | 0.00 | 0.00 | 48 | 1009.5 |
| 20260504170605 | 64 | 246 | 6.1 | 21.7 | 0.00 | 0.00 | 0.00 | 47 | 1009.6 |
| 20260504170105 | 63 | 157 | 6.1 | 17.4 | 0.00 | 0.00 | 0.00 | 47 | 1009.7 |
| 20260504151053 | 60 | 198 | 3.5 | 7.8 | 0.00 | 0.08 | 0.00 | 63 | 1010.5 |
| 20260504150553 | 60 | 159 | 3.5 | 7.8 | 0.00 | 0.08 | 0.00 | 64 | 1010.5 |
| 20260504141047 | 62 | 183 | 3.5 | 9.6 | 0.00 | 0.10 | 0.00 | 51 | 1010.6 |
| 20260504140548 | 62 | 213 | 3.5 | 11.3 | 0.00 | 0.10 | 0.00 | 52 | 1010.6 |
| 20260504130519 | 59 | 274 | 3.5 | 10.4 | 0.00 | 0.10 | 0.00 | 57 | 1010.8 |